• In Russia
  • List of Countries
  • For 7 days
  • Water Temperature
  • Satellite Maps
  • Weather Map
  • Weather Widgets
  • user-avatar
    Login

    Hourly Weather Braunau am Inn

    Today, 18 July, Thursday

    Time Temperature Precipitation Wind Pressure Humidity
    00:00 +15°C° 0.2 mm 1 mps 726 mmHg 92%
    01:00 +15°C° 0 mm 1 mps 726 mmHg 93%
    02:00 +14°C° 0.1 mm 1 mps 726 mmHg 93%
    03:00 +14°C° 0.1 mm 1 mps 726 mmHg 93%
    04:00 +14°C° 0.1 mm 1 mps 726 mmHg 94%
    05:00 +15°C° 0 mm 1 mps 726 mmHg 92%
    06:00 +16°C° 0 mm 1 mps 726 mmHg 91%
    07:00 +18°C° 0 mm 1 mps 726 mmHg 87%
    08:00 +20°C° 0 mm 1 mps 726 mmHg 78%
    09:00 +22°C° 0 mm 1 mps 726 mmHg 70%
    10:00 +24°C° 0 mm 1 mps 726 mmHg 61%
    11:00 +25°C° 0.1 mm 2 mps 726 mmHg 56%
    12:00 +26°C° 0.1 mm 2 mps 726 mmHg 51%
    13:00 +26°C° 0.1 mm 2 mps 726 mmHg 46%
    14:00 +26°C° 0 mm 2 mps 727 mmHg 47%
    15:00 +27°C° 0 mm 2 mps 727 mmHg 48%
    16:00 +27°C° 0 mm 2 mps 727 mmHg 49%
    17:00 +25°C° 0 mm 2 mps 727 mmHg 56%
    18:00 +24°C° 0 mm 1 mps 727 mmHg 63%
    19:00 +22°C° 0 mm 1 mps 727 mmHg 70%
    20:00 +21°C° 0.3 mm 1 mps 727 mmHg 76%
    21:00 +19°C° 0.3 mm 1 mps 727 mmHg 82%
    22:00 +16°C° 0.3 mm 1 mps 728 mmHg 87%
    23:00 +16°C° 0.1 mm 1 mps 728 mmHg 89%

    Tomorrow, 19 July, Friday

    Time Temperature Precipitation Wind Pressure Humidity
    00:00 +15°C° 0.1 mm 1 mps 728 mmHg 90%
    01:00 +15°C° 0.1 mm 1 mps 728 mmHg 91%
    02:00 +15°C° 0 mm 1 mps 728 mmHg 90%
    03:00 +14°C° 0 mm 1 mps 728 mmHg 90%
    04:00 +14°C° 0 mm 1 mps 728 mmHg 90%
    05:00 +15°C° 0 mm 1 mps 728 mmHg 88%
    06:00 +15°C° 0 mm 0 mps 729 mmHg 86%
    07:00 +17°C° 0 mm 0 mps 729 mmHg 83%
    08:00 +19°C° 0 mm 0 mps 729 mmHg 76%
    09:00 +23°C° 0 mm 1 mps 729 mmHg 68%
    10:00 +24°C° 0 mm 1 mps 729 mmHg 61%
    11:00 +26°C° 0.1 mm 1 mps 729 mmHg 57%
    12:00 +27°C° 0.1 mm 1 mps 729 mmHg 53%
    13:00 +28°C° 0.1 mm 1 mps 729 mmHg 49%
    14:00 +28°C° 0 mm 1 mps 729 mmHg 50%
    15:00 +28°C° 0 mm 2 mps 729 mmHg 50%
    16:00 +28°C° 0 mm 2 mps 728 mmHg 51%
    17:00 +26°C° 0 mm 1 mps 729 mmHg 59%
    18:00 +25°C° 0 mm 1 mps 729 mmHg 66%
    19:00 +22°C° 0 mm 0 mps 729 mmHg 74%
    20:00 +20°C° 0 mm 0 mps 729 mmHg 77%
    21:00 +19°C° 0 mm 0 mps 729 mmHg 80%
    22:00 +17°C° 0 mm 0 mps 729 mmHg 84%
    23:00 +17°C° 0 mm 0 mps 729 mmHg 86%

    Day after tomorrow, 20 July, Saturday

    Time Temperature Precipitation Wind Pressure Humidity
    00:00 +16°C° 0 mm 0 mps 729 mmHg 88%
    01:00 +16°C° 0 mm 0 mps 729 mmHg 90%
    02:00 +15°C° 0 mm 0 mps 729 mmHg 91%
    03:00 +15°C° 0 mm 0 mps 729 mmHg 91%
    04:00 +15°C° 0 mm 0 mps 729 mmHg 92%
    05:00 +16°C° 0 mm 0 mps 729 mmHg 88%
    06:00 +20°C° 0 mm 1 mps 729 mmHg 84%
    07:00 +21°C° 0 mm 1 mps 729 mmHg 81%
    08:00 +23°C° 0 mm 1 mps 729 mmHg 74%
    09:00 +25°C° 0 mm 1 mps 730 mmHg 67%
    10:00 +27°C° 0 mm 2 mps 730 mmHg 59%
    11:00 +28°C° 0 mm 1 mps 730 mmHg 56%
    12:00 +29°C° 0 mm 1 mps 729 mmHg 52%
    13:00 +31°C° 0 mm 1 mps 729 mmHg 48%
    14:00 +31°C° 0 mm 1 mps 729 mmHg 48%
    15:00 +30°C° 0 mm 1 mps 729 mmHg 48%
    16:00 +30°C° 0 mm 1 mps 729 mmHg 48%
    17:00 +29°C° 0 mm 1 mps 729 mmHg 56%
    18:00 +27°C° 0 mm 1 mps 730 mmHg 63%
    19:00 +24°C° 0 mm 0 mps 730 mmHg 71%
    20:00 +25°C° 0 mm 1 mps 730 mmHg 73%
    21:00 +23°C° 0 mm 1 mps 730 mmHg 76%
    22:00 +22°C° 0 mm 1 mps 731 mmHg 78%
    23:00 +21°C° 0 mm 1 mps 731 mmHg 78%

    21 July, Sunday

    Time Temperature Precipitation Wind Pressure Humidity
    00:00 +21°C° 0 mm 1 mps 731 mmHg 78%
    01:00 +20°C° 0 mm 1 mps 731 mmHg 78%
    02:00 +20°C° 0.2 mm 1 mps 731 mmHg 81%
    03:00 +19°C° 0.2 mm 1 mps 731 mmHg 85%
    04:00 +16°C° 0.2 mm 0 mps 730 mmHg 89%
    05:00 +19°C° 0.3 mm 1 mps 731 mmHg 89%
    06:00 +20°C° 0.3 mm 1 mps 731 mmHg 90%
    07:00 +21°C° 0.3 mm 1 mps 731 mmHg 90%
    08:00 +21°C° 0.1 mm 2 mps 732 mmHg 87%
    09:00 +23°C° 0.1 mm 2 mps 732 mmHg 83%
    10:00 +24°C° 0.1 mm 2 mps 732 mmHg 79%
    11:00 +26°C° 0.1 mm 2 mps 732 mmHg 73%
    12:00 +27°C° 0.1 mm 3 mps 733 mmHg 67%
    13:00 +29°C° 0.1 mm 3 mps 733 mmHg 60%
    14:00 +29°C° 0.1 mm 3 mps 733 mmHg 60%
    15:00 +29°C° 0.1 mm 3 mps 733 mmHg 60%
    16:00 +29°C° 0.1 mm 3 mps 733 mmHg 60%
    17:00 +28°C° 0.2 mm 3 mps 733 mmHg 67%
    18:00 +26°C° 0.2 mm 2 mps 733 mmHg 74%
    19:00 +25°C° 0.2 mm 1 mps 734 mmHg 81%
    20:00 +23°C° 0.1 mm 1 mps 734 mmHg 84%
    21:00 +22°C° 0.1 mm 1 mps 734 mmHg 86%
    22:00 +21°C° 0.1 mm 1 mps 735 mmHg 89%
    23:00 +20°C° 0 mm 1 mps 734 mmHg 90%

    22 July, Monday

    Time Temperature Precipitation Wind Pressure Humidity
    00:00 +18°C° 0 mm 0 mps 734 mmHg 91%
    01:00 +17°C° 0 mm 0 mps 734 mmHg 92%
    02:00 +17°C° 0 mm 0 mps 734 mmHg 92%
    03:00 +16°C° 0 mm 0 mps 734 mmHg 93%
    04:00 +16°C° 0 mm 0 mps 734 mmHg 93%
    05:00 +17°C° 0 mm 0 mps 734 mmHg 91%
    06:00 +18°C° 0 mm 0 mps 735 mmHg 88%
    07:00 +20°C° 0 mm 0 mps 735 mmHg 86%
    08:00 +22°C° 0 mm 0 mps 735 mmHg 78%
    09:00 +23°C° 0 mm 0 mps 735 mmHg 70%
    10:00 +27°C° 0 mm 1 mps 735 mmHg 62%
    11:00 +28°C° 0 mm 1 mps 735 mmHg 58%
    12:00 +29°C° 0 mm 1 mps 735 mmHg 55%
    13:00 +30°C° 0 mm 1 mps 735 mmHg 51%
    14:00 +30°C° 0 mm 1 mps 734 mmHg 51%
    15:00 +30°C° 0 mm 1 mps 734 mmHg 50%
    16:00 +30°C° 0 mm 2 mps 734 mmHg 49%
    17:00 +28°C° 0 mm 1 mps 734 mmHg 56%
    18:00 +27°C° 0 mm 1 mps 734 mmHg 63%
    19:00 +25°C° 0 mm 1 mps 734 mmHg 69%
    20:00 +24°C° 0 mm 1 mps 734 mmHg 72%
    21:00 +22°C° 0 mm 1 mps 734 mmHg 74%
    22:00 +21°C° 0 mm 1 mps 734 mmHg 76%
    23:00 +20°C° 0 mm 1 mps 734 mmHg 79%

    23 July, Tuesday

    Time Temperature Precipitation Wind Pressure Humidity
    00:00 +19°C° 0 mm 1 mps 734 mmHg 82%
    01:00 +19°C° 0 mm 1 mps 734 mmHg 86%
    02:00 +18°C° 0 mm 1 mps 734 mmHg 88%
    03:00 +18°C° 0 mm 1 mps 734 mmHg 90%
    04:00 +18°C° 0 mm 1 mps 734 mmHg 92%
    05:00 +19°C° 0 mm 1 mps 734 mmHg 88%
    06:00 +19°C° 0 mm 2 mps 734 mmHg 84%
    07:00 +20°C° 0 mm 2 mps 734 mmHg 80%
    08:00 +22°C° 0 mm 3 mps 734 mmHg 74%
    09:00 +25°C° 0 mm 3 mps 733 mmHg 68%
    10:00 +26°C° 0 mm 4 mps 733 mmHg 62%
    11:00 +27°C° 0 mm 4 mps 733 mmHg 58%
    12:00 +29°C° 0 mm 4 mps 733 mmHg 54%
    13:00 +30°C° 0 mm 3 mps 733 mmHg 50%
    14:00 +30°C° 0 mm 3 mps 732 mmHg 49%
    15:00 +30°C° 0 mm 3 mps 732 mmHg 49%
    16:00 +30°C° 0 mm 3 mps 732 mmHg 49%
    17:00 +28°C° 0 mm 3 mps 732 mmHg 56%
    18:00 +27°C° 0 mm 3 mps 731 mmHg 63%
    19:00 +25°C° 0 mm 2 mps 731 mmHg 70%
    20:00 +24°C° 0 mm 3 mps 731 mmHg 71%
    21:00 +21°C° 0 mm 3 mps 731 mmHg 72%
    22:00 +20°C° 0 mm 3 mps 732 mmHg 72%
    23:00 +19°C° 0 mm 3 mps 731 mmHg 75%
    Show more